Location: Владивосток
(43.1151°N, 131.8856°E)
Time: 16:59:00
(UTC+10:00)

DUCHIFAT 1 - Pass Details

Date: 01 July 2022
Orbit: 580 x 596 km, 98.0° (Epoch: 17 August)

Event Time Altitude Azimuth Distance (km) Brightness Sun altitude
Rises 04:21:48 0° 5° (N) 2,843 ? -11.2°
Reaches altitude 10° 04:24:04 10° 358° (N) 1,939 ? -10.9°
Maximum altitude 04:28:00 40° 289° (WNW) 892 ? -10.4°
Enters shadow 04:31:18 14° 224° (SW) 1,701 ? -10.0°
